Time,TemperatureF,DewpointF,PressureIn,WindDirection,WindDirectionDegrees,WindSpeedMPH,WindSpeedGustMPH,Humidity,HourlyPrecipIn,Conditions,Clouds,dailyrainin,SoftwareType,DateUTC
2013-05-04 00:04:00,25.6,23.0,29.95,SE,141,0.0,2.0,90,0.00,,,0.01,weatherlink.com 1.10,2013-05-04 08:04:00,
2013-05-04 00:19:00,25.6,23.0,29.96,SE,127,1.0,1.0,90,0.00,,,0.00,weatherlink.com 1.10,2013-05-04 08:19:00,
2013-05-04 00:35:00,25.6,23.0,29.96,SSW,198,0.0,2.0,90,0.00,,,0.00,weatherlink.com 1.10,2013-05-04 08:35:00,
2013-05-04 00:50:00,25.6,23.0,29.96,SSW,198,0.0,0.0,90,0.00,,,0.00,weatherlink.com 1.10,2013-05-04 08:50:00,
2013-05-04 01:05:00,25.6,23.0,29.96,SSW,198,0.0,0.0,90,0.00,,,0.00,weatherlink.com 1.10,2013-05-04 09:05:00,
2013-05-04 01:20:00,25.6,23.0,29.97,ESE,106,0.0,0.0,91,0.00,,,0.00,weatherlink.com 1.10,2013-05-04 09:20:00,
2013-05-04 01:35:00,25.6,23.0,29.97,SE,146,0.0,1.0,91,0.00,,,0.00,weatherlink.com 1.10,2013-05-04 09:35:00,
2013-05-04 01:50:00,25.5,23.0,29.96,SE,128,0.0,0.0,91,0.00,,,0.00,weatherlink.com 1.10,2013-05-04 09:50:00,
2013-05-04 02:05:00,25.7,23.0,29.97,SE,128,0.0,0.0,90,0.00,,,0.00,weatherlink.com 1.10,2013-05-04 10:05:00,
2013-05-04 02:20:00,25.6,22.0,29.97,SSE,148,0.0,1.0,87,0.00,,,0.00,weatherlink.com 1.10,2013-05-04 10:20:00,
2013-05-04 02:35:00,25.4,22.0,29.97,SE,134,1.0,2.0,85,0.00,,,0.00,weatherlink.com 1.10,2013-05-04 10:35:00,
2013-05-04 02:50:00,25.1,21.0,29.97,SE,143,0.0,2.0,84,0.00,,,0.00,weatherlink.com 1.10,2013-05-04 10:50:00,
2013-05-04 03:05:00,24.9,21.0,29.97,West,280,0.0,2.0,84,0.00,,,0.00,weatherlink.com 1.10,2013-05-04 11:05:00,
2013-05-04 03:20:00,24.7,21.0,29.97,SE,130,0.0,1.0,84,0.00,,,0.00,weatherlink.com 1.10,2013-05-04 11:20:00,
2013-05-04 03:35:00,24.5,20.0,29.97,SE,139,0.0,1.0,83,0.00,,,0.00,weatherlink.com 1.10,2013-05-04 11:35:00,
2013-05-04 03:50:00,24.2,20.0,29.97,SSW,204,0.0,1.0,85,0.00,,,0.00,weatherlink.com 1.10,2013-05-04 11:50:00,
2013-05-04 04:20:00,23.5,20.0,29.96,SSW,205,0.0,0.0,85,0.00,,,0.00,weatherlink.com 1.10,2013-05-04 12:20:00,
2013-05-04 04:35:00,22.9,20.0,29.97,SSW,200,0.0,1.0,88,0.00,,,0.00,weatherlink.com 1.10,2013-05-04 12:35:00,
2013-05-04 04:50:00,22.9,20.0,29.96,SSE,165,0.0,2.0,87,0.00,,,0.00,weatherlink.com 1.10,2013-05-04 12:50:00,
2013-05-04 05:05:00,22.7,19.0,29.96,SSE,150,0.0,2.0,87,0.00,,,0.00,weatherlink.com 1.10,2013-05-04 13:05:00,
2013-05-04 05:20:00,22.6,19.0,29.96,SSE,149,0.0,0.0,87,0.00,,,0.00,weatherlink.com 1.10,2013-05-04 13:20:00,
2013-05-04 05:35:00,22.5,19.0,29.96,SSE,160,0.0,1.0,87,0.00,,,0.00,weatherlink.com 1.10,2013-05-04 13:35:00,
2013-05-04 05:50:00,22.4,19.0,29.96,NW,321,0.0,1.0,87,0.00,,,0.00,weatherlink.com 1.10,2013-05-04 13:50:00,
2013-05-04 06:05:00,22.0,19.0,29.96,South,179,0.0,2.0,87,0.00,,,0.00,weatherlink.com 1.10,2013-05-04 14:05:00,
2013-05-04 06:20:00,22.1,19.0,29.96,SSE,148,0.0,0.0,87,0.00,,,0.00,weatherlink.com 1.10,2013-05-04 14:20:00,
2013-05-04 06:35:00,22.0,19.0,29.95,SW,228,0.0,1.0,87,0.00,,,0.00,weatherlink.com 1.10,2013-05-04 14:35:00,
2013-05-04 06:50:00,22.1,19.0,29.95,ENE,76,0.0,3.0,87,0.00,,,0.00,weatherlink.com 1.10,2013-05-04 14:50:00,
2013-05-04 07:05:00,22.4,19.0,29.95,SE,132,0.0,1.0,87,0.00,,,0.00,weatherlink.com 1.10,2013-05-04 15:05:00,
2013-05-04 07:20:00,22.5,19.0,29.95,SSE,157,0.0,2.0,87,0.00,,,0.00,weatherlink.com 1.10,2013-05-04 15:20:00,
2013-05-04 07:35:00,22.9,19.0,29.95,SE,127,0.0,1.0,86,0.00,,,0.00,weatherlink.com 1.10,2013-05-04 15:35:00,
2013-05-04 07:50:00,23.4,20.0,29.94,ESE,117,0.0,1.0,85,0.00,,,0.00,weatherlink.com 1.10,2013-05-04 15:50:00,
2013-05-04 08:05:00,23.6,19.0,29.94,South,172,0.0,1.0,83,0.00,,,0.00,weatherlink.com 1.10,2013-05-04 16:05:00,
2013-05-04 08:20:00,24.1,20.0,29.94,East,95,0.0,1.0,83,0.00,,,0.00,weatherlink.com 1.10,2013-05-04 16:20:00,
2013-05-04 08:35:00,24.4,19.0,29.94,South,176,0.0,1.0,81,0.00,,,0.00,weatherlink.com 1.10,2013-05-04 16:35:00,
2013-05-04 08:50:00,24.7,19.0,29.94,SSE,155,0.0,2.0,80,0.00,,,0.00,weatherlink.com 1.10,2013-05-04 16:50:00,
2013-05-04 09:05:00,24.9,20.0,29.94,SW,236,0.0,2.0,80,0.00,,,0.00,weatherlink.com 1.10,2013-05-04 17:05:00,
2013-05-04 09:20:00,24.9,20.0,29.93,NW,310,0.0,1.0,81,0.00,,,0.00,weatherlink.com 1.10,2013-05-04 17:20:00,
2013-05-04 09:35:00,24.9,20.0,29.93,East,96,0.0,1.0,81,0.00,,,0.00,weatherlink.com 1.10,2013-05-04 17:35:00,
2013-05-04 09:50:00,25.2,20.0,29.92,NNW,345,0.0,0.0,81,0.00,,,0.00,weatherlink.com 1.10,2013-05-04 17:50:00,
2013-05-04 10:05:00,25.0,19.0,29.92,SE,134,0.0,1.0,79,0.00,,,0.00,weatherlink.com 1.10,2013-05-04 18:05:00,
2013-05-04 10:20:00,25.2,20.0,29.92,WNW,291,0.0,1.0,79,0.00,,,0.00,weatherlink.com 1.10,2013-05-04 18:20:00,
2013-05-04 10:35:00,25.3,19.0,29.91,ESE,122,0.0,2.0,78,0.00,,,0.00,weatherlink.com 1.10,2013-05-04 18:35:00,
2013-05-04 10:50:00,25.7,20.0,29.91,SE,141,0.0,1.0,78,0.00,,,0.00,weatherlink.com 1.10,2013-05-04 18:50:00,
2013-05-04 11:05:00,25.5,20.0,29.90,ESE,110,0.0,1.0,79,0.00,,,0.00,weatherlink.com 1.10,2013-05-04 19:05:00,
2013-05-04 11:20:00,26.3,20.0,29.90,ESE,123,0.0,1.0,77,0.00,,,0.00,weatherlink.com 1.10,2013-05-04 19:20:00,
2013-05-04 11:36:00,26.3,20.0,29.90,West,271,0.0,2.0,78,0.00,,,0.00,weatherlink.com 1.10,2013-05-04 19:36:00,
2013-05-04 11:51:00,26.6,20.0,29.90,SSE,160,1.0,1.0,77,0.00,,,0.00,weatherlink.com 1.10,2013-05-04 19:51:00,
2013-05-04 12:06:00,26.3,20.0,29.90,West,271,1.0,2.0,77,0.00,,,0.00,weatherlink.com 1.10,2013-05-04 20:06:00,
2013-05-04 12:21:00,27.1,21.0,29.90,SE,143,0.0,1.0,77,0.00,,,0.00,weatherlink.com 1.10,2013-05-04 20:21:00,
2013-05-04 12:36:00,27.0,20.0,29.91,WNW,303,1.0,1.0,76,0.00,,,0.00,weatherlink.com 1.10,2013-05-04 20:36:00,
2013-05-04 12:51:00,27.5,21.0,29.90,SE,140,0.0,2.0,76,0.00,,,0.00,weatherlink.com 1.10,2013-05-04 20:51:00,
2013-05-04 13:06:00,27.7,21.0,29.91,SSE,158,0.0,3.0,76,0.00,,,0.00,weatherlink.com 1.10,2013-05-04 21:06:00,
2013-05-04 13:21:00,28.0,21.0,29.91,SSE,154,2.0,2.0,75,0.00,,,0.00,weatherlink.com 1.10,2013-05-04 21:21:00,
2013-05-04 13:36:00,28.1,21.0,29.91,West,269,0.0,4.0,76,0.00,,,0.00,weatherlink.com 1.10,2013-05-04 21:36:00,
2013-05-04 13:51:00,28.3,21.0,29.91,SSE,151,1.0,3.0,75,0.00,,,0.00,weatherlink.com 1.10,2013-05-04 21:51:00,
2013-05-04 14:06:00,28.6,22.0,29.91,West,274,0.0,1.0,75,0.00,,,0.00,weatherlink.com 1.10,2013-05-04 22:06:00,
2013-05-04 14:21:00,29.0,22.0,29.91,SW,217,0.0,1.0,74,0.00,,,0.00,weatherlink.com 1.10,2013-05-04 22:21:00,
2013-05-04 14:36:00,29.2,23.0,29.91,East,81,0.0,2.0,76,0.00,,,0.00,weatherlink.com 1.10,2013-05-04 22:36:00,
2013-05-04 14:51:00,29.4,22.0,29.90,WSW,255,0.0,3.0,75,0.00,,,0.00,weatherlink.com 1.10,2013-05-04 22:51:00,
2013-05-04 15:06:00,29.5,23.0,29.90,WNW,295,0.0,3.0,75,0.00,,,0.00,weatherlink.com 1.10,2013-05-04 23:06:00,
2013-05-04 15:21:00,30.1,22.0,29.90,SSE,155,0.0,2.0,73,0.00,,,0.00,weatherlink.com 1.10,2013-05-04 23:21:00,
2013-05-04 15:36:00,30.7,22.0,29.90,WNW,283,0.0,3.0,71,0.00,,,0.00,weatherlink.com 1.10,2013-05-04 23:36:00,
2013-05-04 15:51:00,31.1,23.0,29.90,SE,130,1.0,1.0,71,0.00,,,0.00,weatherlink.com 1.10,2013-05-04 23:51:00,
2013-05-04 16:06:00,31.2,23.0,29.90,SSE,166,0.0,4.0,72,0.00,,,0.00,weatherlink.com 1.10,2013-05-05 00:06:00,
2013-05-04 16:21:00,31.4,23.0,29.91,SE,144,0.0,2.0,71,0.00,,,0.00,weatherlink.com 1.10,2013-05-05 00:21:00,
2013-05-04 16:36:00,32.1,23.0,29.91,West,274,0.0,3.0,68,0.00,,,0.00,weatherlink.com 1.10,2013-05-05 00:36:00,
2013-05-04 16:51:00,32.7,23.0,29.90,South,181,0.0,2.0,68,0.00,,,0.00,weatherlink.com 1.10,2013-05-05 00:51:00,
2013-05-04 17:07:00,31.4,22.0,29.91,NW,313,0.0,5.0,69,0.00,,,0.00,weatherlink.com 1.10,2013-05-05 01:07:00,
2013-05-04 17:21:00,31.0,23.0,29.91,SE,134,0.0,4.0,71,0.00,,,0.00,weatherlink.com 1.10,2013-05-05 01:21:00,
2013-05-04 17:36:00,31.3,23.0,29.91,SSE,148,2.0,6.0,71,0.00,,,0.00,weatherlink.com 1.10,2013-05-05 01:36:00,
2013-05-04 17:51:00,31.3,23.0,29.91,SE,143,0.0,4.0,71,0.00,,,0.00,weatherlink.com 1.10,2013-05-05 01:51:00,
2013-05-04 18:06:00,31.5,23.0,29.91,SE,136,2.0,3.0,71,0.00,,,0.00,weatherlink.com 1.10,2013-05-05 02:06:00,
2013-05-04 18:21:00,31.2,22.0,29.91,SSE,161,0.0,3.0,70,0.00,,,0.00,weatherlink.com 1.10,2013-05-05 02:21:00,
2013-05-04 18:36:00,31.7,23.0,29.91,ESE,122,0.0,2.0,71,0.00,,,0.00,weatherlink.com 1.10,2013-05-05 02:36:00,
2013-05-04 18:51:00,32.4,24.0,29.92,South,172,1.0,3.0,70,0.00,,,0.00,weatherlink.com 1.10,2013-05-05 02:51:00,
2013-05-04 19:06:00,33.0,24.0,29.92,WNW,288,0.0,3.0,69,0.00,,,0.00,weatherlink.com 1.10,2013-05-05 03:06:00,
2013-05-04 19:22:00,33.6,23.0,29.92,SSW,204,0.0,4.0,66,0.00,,,0.00,weatherlink.com 1.10,2013-05-05 03:22:00,
2013-05-04 19:36:00,34.7,22.0,29.93,North,8,0.0,3.0,61,0.00,,,0.00,weatherlink.com 1.10,2013-05-05 03:36:00,
2013-05-04 19:51:00,34.5,21.0,29.92,SSW,199,0.0,3.0,57,0.00,,,0.00,weatherlink.com 1.10,2013-05-05 03:51:00,
2013-05-04 20:06:00,33.9,20.0,29.93,SSW,195,0.0,3.0,58,0.00,,,0.00,weatherlink.com 1.10,2013-05-05 04:06:00,
2013-05-04 20:21:00,33.4,19.0,29.93,ENE,76,2.0,3.0,56,0.00,,,0.00,weatherlink.com 1.10,2013-05-05 04:21:00,
2013-05-04 20:36:00,32.9,17.0,29.93,SE,138,0.0,2.0,53,0.00,,,0.00,weatherlink.com 1.10,2013-05-05 04:36:00,
2013-05-04 20:51:00,31.9,17.0,29.94,South,176,0.0,1.0,54,0.00,,,0.00,weatherlink.com 1.10,2013-05-05 04:51:00,
2013-05-04 21:06:00,31.2,19.0,29.94,SE,124,0.0,1.0,62,0.00,,,0.00,weatherlink.com 1.10,2013-05-05 05:06:00,
2013-05-04 21:21:00,30.7,18.0,29.95,SE,124,0.0,0.0,60,0.00,,,0.00,weatherlink.com 1.10,2013-05-05 05:21:00,
2013-05-04 21:36:00,30.2,18.0,29.95,SE,124,0.0,0.0,62,0.00,,,0.00,weatherlink.com 1.10,2013-05-05 05:36:00,
2013-05-04 21:51:00,28.8,19.0,29.96,SE,124,0.0,0.0,66,0.00,,,0.00,weatherlink.com 1.10,2013-05-05 05:51:00,
2013-05-04 22:06:00,27.4,19.0,29.96,SE,124,0.0,0.0,71,0.00,,,0.00,weatherlink.com 1.10,2013-05-05 06:06:00,
2013-05-04 22:21:00,26.4,19.0,29.97,SE,124,0.0,0.0,74,0.00,,,0.00,weatherlink.com 1.10,2013-05-05 06:21:00,
2013-05-04 22:36:00,25.3,19.0,29.98,SE,124,0.0,0.0,77,0.00,,,0.00,weatherlink.com 1.10,2013-05-05 06:36:00,
2013-05-04 22:51:00,24.6,18.0,29.98,SE,124,0.0,0.0,77,0.00,,,0.00,weatherlink.com 1.10,2013-05-05 06:51:00,
2013-05-04 23:06:00,24.0,18.0,29.98,SE,124,0.0,0.0,79,0.00,,,0.00,weatherlink.com 1.10,2013-05-05 07:06:00,
2013-05-04 23:21:00,23.5,17.0,29.99,SE,124,0.0,0.0,77,0.00,,,0.00,weatherlink.com 1.10,2013-05-05 07:21:00,
2013-05-04 23:36:00,23.0,17.0,30.00,SE,124,0.0,0.0,79,0.00,,,0.00,weatherlink.com 1.10,2013-05-05 07:36:00,
2013-05-04 23:51:00,22.7,17.0,30.00,SE,124,0.0,0.0,78,0.00,,,0.00,weatherlink.com 1.10,2013-05-05 07:51:00,